Location: Columbia
(38.9520°N, 92.3340°W)
Time: 04:34:24
(UTC-05:00)

FENGYUN 3A - Visible Passes

Search period start: 27 July 2016 00:00
Search period end: 06 August 2016 00:00
Orbit: 819 x 834 km, 98.4° (Epoch: 26 July)

Date Brightness Start Highest point End Pass type
(mag) Time Alt. Az. Time Alt. Az. Time Alt. Az.
27 Jul 3.9 20:55:10 10° S 21:00:33 73° WSW 21:05:57 10° NNW visible
28 Jul 6.3 22:20:19 10° WSW 22:22:28 12° W 22:24:37 10° WNW visible
29 Jul 6.1 21:59:38 10° SW 22:03:23 19° W 22:07:09 10° NW visible
30 Jul 5.5 21:39:46 10° SSW 21:44:22 28° W 21:48:58 10° NW visible
31 Jul 4.8 21:20:18 10° S 21:25:23 42° W 21:30:29 10° NNW visible
01 Aug 4.1 21:01:08 10° S 21:06:27 64° WSW 21:11:49 10° NNW visible
02 Aug 3.7 20:42:12 10° SSE 20:47:35 87° ENE 20:53:00 10° NNW visible
02 Aug 6.5 22:27:41 10° W 22:28:27 10° W 22:29:14 10° W visible
03 Aug 6.2 22:06:03 10° SW 22:09:21 16° W 22:12:40 10° NW visible
04 Aug 5.7 21:45:59 10° SSW 21:50:19 25° W 21:54:40 10° NW visible
05 Aug 5.1 21:26:23 10° SSW 21:31:19 37° W 21:36:17 10° NNW visible
